Time,TemperatureF,DewpointF,PressureIn,WindDirection,WindDirectionDegrees,WindSpeedMPH,WindSpeedGustMPH,Humidity,HourlyPrecipIn,Conditions,Clouds,dailyrainin,SolarRadiationWatts/m^2,SoftwareType,DateUTC
2013-03-20 00:00:00,23.0,15.0,-100.00,West,270,6.0,-999.0,68,-99.99,,,-99.99,0.000000,,2013-03-20 04:00:00,
2013-03-20 00:43:00,23.0,15.0,-100.00,West,270,6.0,-999.0,68,-99.99,,,-99.99,0.000000,,2013-03-20 04:43:00,
2013-03-20 00:53:00,23.0,15.0,-100.00,West,270,6.0,-999.0,68,-99.99,,,-99.99,0.000000,,2013-03-20 04:53:00,
2013-03-20 01:00:00,23.0,15.0,-100.00,West,270,5.0,-999.0,69,-99.99,,,-99.99,0.000000,,2013-03-20 05:00:00,
2013-03-20 01:43:00,23.0,15.0,-100.00,West,270,5.0,-999.0,69,-99.99,,,-99.99,0.000000,,2013-03-20 05:43:00,
2013-03-20 01:53:00,23.0,15.0,-100.00,West,270,5.0,-999.0,69,-99.99,,,-99.99,0.000000,,2013-03-20 05:53:00,
2013-03-20 02:00:00,23.0,14.0,-100.00,West,270,6.0,-999.0,68,-99.99,,,-99.99,0.000000,,2013-03-20 06:00:00,
2013-03-20 02:43:00,23.0,14.0,-100.00,West,270,6.0,-999.0,68,-99.99,,,-99.99,0.000000,,2013-03-20 06:43:00,
2013-03-20 02:53:00,23.0,14.0,-100.00,West,270,6.0,-999.0,68,-99.99,,,-99.99,0.000000,,2013-03-20 06:53:00,
2013-03-20 03:00:00,23.0,14.0,-100.00,West,270,5.0,-999.0,69,-99.99,,,-99.99,0.000000,,2013-03-20 07:00:00,
2013-03-20 03:42:00,23.0,14.0,-100.00,West,270,5.0,-999.0,69,-99.99,,,-99.99,0.000000,,2013-03-20 07:42:00,
2013-03-20 03:52:00,23.0,14.0,-100.00,West,270,5.0,-999.0,69,-99.99,,,-99.99,0.000000,,2013-03-20 07:52:00,
2013-03-20 04:00:00,23.0,13.0,-100.00,West,270,6.0,-999.0,66,-99.99,,,-99.99,0.000000,,2013-03-20 08:00:00,
2013-03-20 04:43:00,23.0,13.0,-100.00,West,270,6.0,-999.0,66,-99.99,,,-99.99,0.000000,,2013-03-20 08:43:00,
2013-03-20 04:52:00,23.0,13.0,-100.00,West,270,6.0,-999.0,66,-99.99,,,-99.99,0.000000,,2013-03-20 08:52:00,
2013-03-20 05:00:00,22.0,11.0,-100.00,West,270,5.0,-999.0,63,-99.99,,,-99.99,0.000000,,2013-03-20 09:00:00,
2013-03-20 05:43:00,22.0,11.0,-100.00,West,270,5.0,-999.0,63,-99.99,,,-99.99,0.000000,,2013-03-20 09:43:00,
2013-03-20 05:53:00,22.0,11.0,-100.00,West,270,5.0,-999.0,63,-99.99,,,-99.99,0.000000,,2013-03-20 09:53:00,
2013-03-20 06:00:00,21.0,10.0,-100.00,WNW,292,4.0,-999.0,61,-99.99,,,-99.99,0.000000,,2013-03-20 10:00:00,
2013-03-20 06:43:00,21.0,10.0,-100.00,WNW,292,4.0,-999.0,61,-99.99,,,-99.99,0.000000,,2013-03-20 10:43:00,
2013-03-20 06:53:00,21.0,10.0,-100.00,WNW,292,4.0,-999.0,61,-99.99,,,-99.99,0.000000,,2013-03-20 10:53:00,
2013-03-20 07:00:00,20.0,10.0,-100.00,West,270,3.0,-999.0,63,-99.99,,,-99.99,0.000000,,2013-03-20 11:00:00,
2013-03-20 07:43:00,20.0,10.0,-100.00,West,270,3.0,-999.0,63,-99.99,,,-99.99,0.000000,,2013-03-20 11:43:00,
2013-03-20 07:52:00,20.0,10.0,-100.00,West,270,3.0,-999.0,63,-99.99,,,-99.99,0.000000,,2013-03-20 11:52:00,
2013-03-20 08:00:00,20.0,10.0,-100.00,West,270,4.0,-999.0,64,-99.99,,,-99.99,4.640000,,2013-03-20 12:00:00,
2013-03-20 08:43:00,20.0,10.0,-100.00,West,270,4.0,-999.0,64,-99.99,,,-99.99,4.640000,,2013-03-20 12:43:00,
2013-03-20 08:52:00,20.0,10.0,-100.00,West,270,4.0,-999.0,64,-99.99,,,-99.99,4.640000,,2013-03-20 12:52:00,
2013-03-20 09:00:00,21.0,11.0,-100.00,West,270,6.0,-999.0,65,-99.99,,,-99.99,78.879997,,2013-03-20 13:00:00,
2013-03-20 09:43:00,21.0,11.0,-100.00,West,270,6.0,-999.0,65,-99.99,,,-99.99,78.879997,,2013-03-20 13:43:00,
2013-03-20 09:53:00,21.0,11.0,-100.00,West,270,6.0,-999.0,65,-99.99,,,-99.99,78.879997,,2013-03-20 13:53:00,
2013-03-20 10:00:00,22.0,11.0,-100.00,West,270,8.0,-999.0,62,-99.99,,,-99.99,157.759995,,2013-03-20 14:00:00,
2013-03-20 10:43:00,22.0,11.0,-100.00,West,270,8.0,-999.0,62,-99.99,,,-99.99,157.759995,,2013-03-20 14:43:00,
2013-03-20 10:53:00,22.0,11.0,-100.00,West,270,8.0,-999.0,62,-99.99,,,-99.99,157.759995,,2013-03-20 14:53:00,
2013-03-20 11:00:00,23.0,10.0,-100.00,WNW,292,9.0,-999.0,57,-99.99,,,-99.99,300.440002,,2013-03-20 15:00:00,
2013-03-20 11:43:00,23.0,10.0,-100.00,WNW,292,9.0,-999.0,57,-99.99,,,-99.99,300.440002,,2013-03-20 15:43:00,
2013-03-20 11:53:00,23.0,10.0,-100.00,WNW,292,9.0,-999.0,57,-99.99,,,-99.99,300.440002,,2013-03-20 15:53:00,
2013-03-20 12:00:00,23.0,9.0,-100.00,West,270,9.0,-999.0,54,-99.99,,,-99.99,367.720001,,2013-03-20 16:00:00,
2013-03-20 12:43:00,23.0,9.0,-100.00,West,270,9.0,-999.0,54,-99.99,,,-99.99,367.720001,,2013-03-20 16:43:00,
2013-03-20 12:53:00,23.0,9.0,-100.00,West,270,9.0,-999.0,54,-99.99,,,-99.99,367.720001,,2013-03-20 16:53:00,
2013-03-20 13:00:00,24.0,12.0,-100.00,West,270,9.0,-999.0,61,-99.99,,,-99.99,584.640015,,2013-03-20 17:00:00,
2013-03-20 13:42:00,24.0,12.0,-100.00,West,270,9.0,-999.0,61,-99.99,,,-99.99,584.640015,,2013-03-20 17:42:00,
2013-03-20 13:53:00,24.0,12.0,-100.00,West,270,9.0,-999.0,61,-99.99,,,-99.99,584.640015,,2013-03-20 17:53:00,
2013-03-20 14:00:00,24.0,12.0,-100.00,WNW,292,8.0,-999.0,59,-99.99,,,-99.99,295.799988,,2013-03-20 18:00:00,
2013-03-20 14:43:00,24.0,12.0,-100.00,WNW,292,8.0,-999.0,59,-99.99,,,-99.99,295.799988,,2013-03-20 18:43:00,
2013-03-20 14:53:00,24.0,12.0,-100.00,WNW,292,8.0,-999.0,59,-99.99,,,-99.99,295.799988,,2013-03-20 18:53:00,
2013-03-20 15:00:00,24.0,11.0,-100.00,West,270,10.0,-999.0,57,-99.99,,,-99.99,428.040009,,2013-03-20 19:00:00,
2013-03-20 15:42:00,24.0,11.0,-100.00,West,270,10.0,-999.0,57,-99.99,,,-99.99,428.040009,,2013-03-20 19:42:00,
2013-03-20 15:53:00,24.0,11.0,-100.00,West,270,10.0,-999.0,57,-99.99,,,-99.99,428.040009,,2013-03-20 19:53:00,
2013-03-20 16:00:00,24.0,11.0,-100.00,West,270,10.0,-999.0,55,-99.99,,,-99.99,262.160004,,2013-03-20 20:00:00,
2013-03-20 16:32:00,24.0,11.0,-100.00,West,270,10.0,-999.0,55,-99.99,,,-99.99,262.160004,,2013-03-20 20:32:00,
2013-03-20 16:43:00,24.0,11.0,-100.00,West,270,10.0,-999.0,55,-99.99,,,-99.99,262.160004,,2013-03-20 20:43:00,
2013-03-20 16:53:00,24.0,11.0,-100.00,West,270,10.0,-999.0,55,-99.99,,,-99.99,262.160004,,2013-03-20 20:53:00,
2013-03-20 17:00:00,24.0,10.0,-100.00,West,270,9.0,-999.0,55,-99.99,,,-99.99,248.240005,,2013-03-20 21:00:00,
2013-03-20 17:42:00,24.0,10.0,-100.00,West,270,9.0,-999.0,55,-99.99,,,-99.99,248.240005,,2013-03-20 21:42:00,
2013-03-20 17:53:00,24.0,10.0,-100.00,West,270,9.0,-999.0,55,-99.99,,,-99.99,248.240005,,2013-03-20 21:53:00,
2013-03-20 18:00:00,23.0,9.0,-100.00,West,270,9.0,-999.0,54,-99.99,,,-99.99,107.879997,,2013-03-20 22:00:00,
2013-03-20 18:43:00,23.0,9.0,-100.00,West,270,9.0,-999.0,54,-99.99,,,-99.99,107.879997,,2013-03-20 22:43:00,
2013-03-20 18:53:00,23.0,9.0,-100.00,West,270,9.0,-999.0,54,-99.99,,,-99.99,107.879997,,2013-03-20 22:53:00,
2013-03-20 19:00:00,21.0,10.0,-100.00,WNW,292,8.0,-999.0,61,-99.99,,,-99.99,77.720001,,2013-03-20 23:00:00,
2013-03-20 19:43:00,21.0,10.0,-100.00,WNW,292,8.0,-999.0,61,-99.99,,,-99.99,77.720001,,2013-03-20 23:43:00,
2013-03-20 19:53:00,21.0,10.0,-100.00,WNW,292,8.0,-999.0,61,-99.99,,,-99.99,77.720001,,2013-03-20 23:53:00,
2013-03-20 20:00:00,19.0,9.0,-100.00,West,270,7.0,-999.0,64,-99.99,,,-99.99,16.240000,,2013-03-21 00:00:00,
2013-03-20 20:42:00,19.0,9.0,-100.00,West,270,7.0,-999.0,64,-99.99,,,-99.99,16.240000,,2013-03-21 00:42:00,
2013-03-20 20:53:00,19.0,9.0,-100.00,West,270,7.0,-999.0,64,-99.99,,,-99.99,16.240000,,2013-03-21 00:53:00,
2013-03-20 21:00:00,18.0,9.0,-100.00,West,270,5.0,-999.0,66,-99.99,,,-99.99,0.000000,,2013-03-21 01:00:00,
2013-03-20 21:42:00,18.0,9.0,-100.00,West,270,5.0,-999.0,66,-99.99,,,-99.99,0.000000,,2013-03-21 01:42:00,
2013-03-20 21:53:00,18.0,9.0,-100.00,West,270,5.0,-999.0,66,-99.99,,,-99.99,0.000000,,2013-03-21 01:53:00,
2013-03-20 22:00:00,17.0,8.0,-100.00,West,270,6.0,-999.0,66,-99.99,,,-99.99,0.000000,,2013-03-21 02:00:00,
2013-03-20 23:00:00,16.0,8.0,-100.00,West,270,6.0,-999.0,71,-99.99,,,-99.99,0.000000,,2013-03-21 03:00:00,
2013-03-20 23:43:00,16.0,8.0,-100.00,West,270,6.0,-999.0,71,-99.99,,,-99.99,0.000000,,2013-03-21 03:43:00,
2013-03-20 23:53:00,16.0,8.0,-100.00,West,270,6.0,-999.0,71,-99.99,,,-99.99,0.000000,,2013-03-21 03:53:00,